sat.trackr.live / text

‹ back to catalog

STARLINK-33719

NORAD 63578 · 2025-076K

PAYLOAD ACTIVE UNKNOWN

§ Identity

Operator
Country
US
Launch date
2025-04-14
Launch site
AFETR
Launch vehicle
Mass (kg)
RCS (m²)

Purposes: comms

External: N2YO · Heavens-Above · Gunter

§ Orbital elements

Epoch: 2026-09-20T10:13:46.172640Z

Period
94.27 min
Inclination
42.9990°
Eccentricity
0.0000501
Mean motion
15.27586439 rev/d
Perigee alt
482.7 km
Apogee alt
483.4 km
Semi-major
6,861.2 km
B*
4.9597e-4
RAAN
301.8549°
Arg perigee
171.5834°
Mean anomaly
188.5026°
Rev number
8,161

§ Raw data

STARLINK-337191 63578U 25076K   26263.42622885  .00013414  00000+0  49597-3 0  99942 63578  42.9990 301.8549 0000501 171.5834 188.5026 15.27586439 81615

JSON: /api/v1/satellites/63578 · /tle

For live sub-satellite position, see the globe view (requires WebGL).

§ Visibility from observer

Set your observer location to see the next 7 days of passes ≥ 10°. The values pass through the URL so the page stays shareable.

No JS? Fill the form by hand. The geolocation button needs JavaScript.